Location: Bermadez Place
(34.6762°N, 106.3178°W)
Time: 14:12:36
(UTC+00:00)

Daily predictions for brighter satellites

Satellite Brightness Start Highest point End
(mag) Time Altitude Azimuth Time Altitude Azimuth Time Altitude Azimuth
YAOGAN 6 4.0 12:05:35 27° S 12:05:35 27° S 12:07:20 10° SSW
OAO 3 Rocket 3.6 12:06:12 44° SW 12:06:57 48° SSW 12:11:42 10° SE
USA 238 DEB 4.3 12:10:11 32° NW 12:10:11 32° NW 12:15:53 10° NNE
Cosmos 2034 Rocket 4.2 12:08:28 38° NW 12:09:57 44° W 12:15:52 10° SSW
USA 238 4.3 12:10:14 32° NW 12:10:14 32° NW 12:15:59 10° NNE
BREEZE-M DEB 3.5 12:11:17 31° S 12:12:11 44° SE 12:16:43 10° ENE
Chandra Rocket (1) 3.9 12:15:52 12° SSW 12:15:52 12° SSW 12:16:30 10° S
Cosmos 1933 4.2 12:16:20 33° SW 12:16:20 33° SW 12:18:55 10° SSW
Cosmos 1867 3.5 12:13:50 35° NW 12:16:09 72° WSW 12:21:32 10° SSE
USA 215 4.3 12:11:20 10° E 12:17:13 37° NE 12:22:26 13° NNW
Iridium 2 3.5 12:13:45 10° S 12:17:32 89° W 12:21:20 10° N
Cosmos 2208 Rocket 4.0 12:15:13 29° NNW 12:17:59 65° WSW 12:23:14 10° S
Cosmos 1503 Rocket 4.2 12:17:15 10° S 12:22:28 76° ESE 12:27:46 10° NNE
Cosmos 1656 Rocket 3.5 12:20:48 10° SSW 12:26:09 66° WNW 12:31:33 10° NNE
Cosmos 1486 Rocket 4.1 12:24:55 10° SW 12:30:04 50° WNW 12:35:12 10° N
SJ 16-02 3.6 12:26:44 10° SSE 12:30:25 27° E 12:34:07 10° NE
Cosmos 1634 Rocket 3.9 12:25:51 10° NNW 12:32:04 67° W 12:38:11 10° S
BREEZE-M DEB (TANK) 4.1 12:17:42 17° NW 12:32:21 82° NE 12:37:22 10° SE
CZ-2C R/B 2.6 12:26:52 10° SSE 12:32:25 85° WSW 12:37:51 10° NNW
Cosmos 1943 Rocket 3.8 12:34:39 15° NNW 12:34:39 15° NNW 12:36:28 10° NNW
APEX 3.9 12:34:35 27° SW 12:34:35 27° SW 12:37:10 10° S
TSX-5 4.4 12:29:19 11° NNW 12:34:55 78° ENE 12:39:16 10° SSE
SKYMED 2 3.5 12:33:53 10° S 12:38:12 70° WSW 12:42:32 10° NNW
Landsat 5 3.6 12:40:00 10° S 12:44:29 82° W 12:49:00 10° NNW
Genesis I 3.3 12:43:47 21° NW 12:46:21 62° WSW 12:50:19 10° SSE
Cosmos 1812 3.2 12:52:27 10° NNW 12:55:57 38° W 12:59:31 10° SSW
Okean 3 Rocket 4.0 12:52:52 10° SSW 12:57:08 41° W 13:01:27 10° N
H-2A R/B 3.6 12:53:59 10° SE 12:57:50 36° ENE 13:01:47 10° N
Cosmos 921 Rocket 3.6 12:54:48 12° NNW 12:58:36 38° W 13:02:45 10° SSW
Envisat 3.8 12:54:50 10° NNW 12:59:09 29° WNW 13:03:26 10° SW
NOAA 11 4.1 12:54:03 10° N 12:59:30 72° WNW 13:04:57 10° SSW
Cosmos 2098 Rocket 3.9 12:57:26 10° SW 13:00:26 24° WNW 13:03:59 10° NNW
DELTA 2 R/B (1) 3.7 12:56:59 15° W 13:01:32 58° NNW 13:07:01 10° ENE
NOAA 12 4.3 12:56:23 10° NNE 13:01:40 75° ESE 13:06:52 10° S
Cosmos 2180 Rocket 4.4 12:56:24 10° N 13:02:34 82° W 13:08:40 10° S
SJ-7 4.5 13:00:42 10° N 13:04:49 58° WNW 13:08:51 10° SSW
Meteor 2-19 Rocket 4.4 12:59:20 10° S 13:05:24 82° W 13:11:29 10° N
CZ-3 R/B 3.6 12:57:49 10° SW 13:08:26 28° S 13:12:55 10° ESE
Meteor PRIRODA 3.5 13:04:58 10° N 13:08:33 61° WNW 13:12:07 10° SSW
Cosmos 1766 Rocket 4.5 13:05:41 10° SW 13:09:18 25° WNW 13:12:54 10° NNW
Meteor 2-6 Rocket 4.3 13:05:52 10° NNW 13:11:06 52° W 13:16:17 10° S
Cosmos 1151 Rocket 3.8 13:08:02 10° NNW 13:11:54 32° W 13:15:47 10° SSW
Meteor 1-31 Rocket 4.2 13:10:45 10° NNW 13:13:28 18° WNW 13:16:11 10° WSW
Cosmos 1174 2.9 13:11:16 10° SSW 13:14:18 80° WNW 13:17:17 10° NNE
CENTAUR R/B 4.3 13:12:48 10° NW 13:14:40 11° NNW 13:16:36 10° NNW
Hubble Space Telescope 3.3 13:17:57 10° SW 13:18:56 11° SSW 13:19:55 10° S
ATLAS 5 CENTAUR R/B 1.2 13:17:12 10° SW 13:20:52 63° WNW 13:24:53 10° NNE
CZ-4B R/B 3.5 13:18:09 10° SE 13:21:03 28° ENE 13:23:56 10° NNE
ADEOS 4.2 13:21:01 10° N 13:25:39 33° WNW 13:30:16 10° SW
Cosmos 1328 Rocket 4.3 13:21:46 10° NNW 13:25:40 32° W 13:29:30 10° SSW
COSMO-SKYMED 1 4.0 13:23:23 10° SW 13:26:25 19° W 13:29:29 10° NW
FALCON 9 R/B 3.6 13:05:39 10° W 13:27:08 76° SSW 13:32:39 10° ESE
Meteor 1-10 Rocket 4.4 13:23:06 10° NNW 13:28:28 51° W 13:33:48 10° SSW
CZ-4C R/B 4.1 13:26:34 10° SSW 13:29:04 22° W 13:31:35 10° NW
Cosmos 1833 4.3 13:24:11 10° NNW 13:29:50 66° WSW 13:35:30 10° S
